EW9290 Weather Reports


Display with metric or nautical units.
time (UTC)temp
F
wind
direction
speed
MPH
gust
MPH
rain 1hr
in
rain 24hr
in
rain mn
in
humidity
%
barometer
mb
20260904045317 67 173 0.0 0.0 0.00 0.00 0.00 99 1013.5
20260904044811 67 169 0.0 0.0 0.00 0.00 0.00 99 1013.4
20260904044308 67 209 0.0 0.0 0.00 0.00 0.00 99 1013.4
20260904043804 67 182 1.0 2.0 0.00 0.00 0.00 99 1013.2
20260904043300 67 189 1.0 1.0 0.00 0.00 0.00 99 1013.3
20260904042755 67 185 0.0 0.0 0.00 0.00 0.00 99 1013.4
20260904042251 67 179 1.0 1.0 0.00 0.00 0.00 99 1013.1
20260904041751 67 179 3.0 3.0 0.00 0.00 0.00 99 1013.3
20260904041247 67 166 1.0 1.0 0.00 0.00 0.00 99 1013.5
20260904040743 67 186 2.0 2.0 0.00 0.00 0.00 99 1013.5
20260904040238 67 166 1.0 2.0 0.00 0.00 0.00 99 1013.3
20260904035734 67 151 0.0 1.0 0.00 0.85 0.85 99 1013.4
20260904035230 67 160 1.0 3.0 0.00 0.85 0.85 99 1013.6
20260904034728 67 162 2.0 2.0 0.00 0.85 0.85 99 1013.7
20260904034224 67 98 1.0 2.0 0.00 0.85 0.85 99 1013.7
20260904033720 67 170 3.0 5.0 0.00 0.85 0.85 99 1013.4
20260904033217 67 193 2.0 2.0 0.00 0.85 0.85 99 1013.4
20260904032712 67 150 0.0 0.0 0.00 0.85 0.85 99 1013.8
20260904032211 67 131 0.0 0.0 0.00 0.85 0.85 99 1013.4
20260904031711 67 141 0.0 0.0 0.00 0.85 0.85 99 1013.1
20260904031207 67 171 2.0 3.0 0.00 0.85 0.85 99 1013.1
20260904030702 67 173 0.0 0.0 0.00 0.85 0.85 99 1012.8
20260904030157 67 154 3.0 5.0 0.00 0.85 0.85 99 1013.2
20260904025654 67 177 2.0 2.0 0.00 0.85 0.85 99 1013.1
20260904025149 67 195 2.0 2.0 0.00 0.85 0.85 99 1013.1
20260904024644 67 179 1.0 1.0 0.00 0.85 0.85 99 1013.2
20260904024140 67 185 3.0 3.0 0.00 0.85 0.85 99 1013.2
20260904023636 67 184 0.0 0.0 0.00 0.85 0.85 99 1013.1
20260904023132 67 157 1.0 1.0 0.00 0.85 0.85 99 1013.1
20260904022631 67 175 3.0 3.0 0.00 0.85 0.85 99 1013.1
20260904022128 67 160 1.0 1.0 0.00 0.85 0.85 99 1013.1
20260904021624 67 174 3.0 3.0 0.00 0.85 0.85 99 1013.0
20260904021119 67 158 1.0 1.0 0.00 0.85 0.85 99 1013.2
20260904020615 67 145 1.0 2.0 0.00 0.85 0.85 99 1012.8
20260904020109 67 161 0.0 0.0 0.00 0.85 0.85 99 1012.8
20260904015603 67 162 3.0 3.0 0.00 0.85 0.85 99 1012.8
20260904015102 67 173 1.0 1.0 0.00 0.85 0.85 99 1012.7
20260904014556 67 199 2.0 2.0 0.00 0.85 0.85 99 1012.9
20260904014052 67 154 2.0 2.0 0.00 0.85 0.85 99 1012.9
20260904013548 67 173 2.0 3.0 0.00 0.85 0.85 99 1012.9
20260904013044 67 168 0.0 0.0 0.00 0.85 0.85 99 1012.9
20260904012544 67 203 2.0 3.0 0.00 0.85 0.85 99 1013.0
20260904012038 67 174 1.0 1.0 0.00 0.85 0.85 99 1012.5
20260904011538 67 153 1.0 2.0 0.00 0.85 0.85 99 1012.9
20260904011033 67 167 1.0 1.0 0.00 0.85 0.85 99 1012.9
20260904010529 67 185 1.0 1.0 0.00 0.85 0.85 99 1012.7
20260904010025 67 151 2.0 3.0 0.00 0.85 0.85 99 1012.7
20260904005519 67 133 0.0 1.0 0.00 0.85 0.85 99 1012.8
20260904005015 67 164 1.0 2.0 0.00 0.85 0.85 99 1013.1
20260904004511 67 177 1.0 1.0 0.00 0.85 0.85 99 1013.1
20260904004011 67 178 0.0 0.0 0.00 0.85 0.85 99 1012.8
20260904003507 67 159 1.0 2.0 0.00 0.85 0.85 99 1012.9
20260904003002 68 157 1.0 1.0 0.00 0.85 0.85 99 1013.4
20260904002459 67 128 0.0 1.0 0.00 0.85 0.85 99 1013.1
20260904001957 68 156 3.0 3.0 0.00 0.85 0.85 99 1013.2
20260904001453 67 149 0.0 0.0 0.00 0.85 0.85 99 1013.3
20260904000947 67 150 0.0 1.0 0.00 0.85 0.85 99 1013.0
20260904000447 67 115 2.0 2.0 0.07 0.85 0.85 99 1013.3
20260903235942 67 119 0.0 0.0 0.07 0.85 0.85 99 1013.4
20260903235438 67 102 0.0 0.0 0.00 0.84 0.84 99 1013.9
20260903234938 68 121 0.0 1.0 0.00 0.84 0.84 99 1014.1
20260903234433 67 82 0.0 0.0 0.00 0.84 0.84 99 1014.1
20260903233930 67 23 3.0 3.0 0.00 0.84 0.84 99 1013.9
20260903233426 67 67 0.0 1.0 0.05 0.84 0.84 99 1014.1
20260903232925 67 50 0.0 1.0 0.12 0.84 0.84 99 1014.2
20260903232421 67 33 1.0 2.0 0.12 0.83 0.83 99 1014.3
20260903231921 67 26 4.0 6.0 0.17 0.82 0.82 99 1014.3
20260903231416 67 36 3.0 5.0 0.17 0.80 0.80 99 1015.0
20260903230910 67 42 2.0 3.0 0.31 0.79 0.79 99 1015.2
20260903230406 67 14 1.0 1.0 0.61 0.77 0.77 99 1015.7
20260903225902 67 49 0.0 0.0 0.78 0.74 0.74 99 1015.5
20260903225357 67 39 5.0 7.0 0.78 0.68 0.68 99 1016.3
20260903224854 68 41 2.0 5.0 1.21 0.62 0.62 99 1016.4
20260903224349 68 124 1.0 2.0 2.10 0.54 0.54 99 1015.6
20260903223845 68 3 10.0 14.0 1.75 0.39 0.39 99 1015.4
20260903223344 69 38 12.0 18.0 0.38 0.16 0.16 97 1014.9
20260903222839 70 3 12.0 17.0 0.00 0.10 0.10 94 1015.0
20260903222338 73 50 15.0 22.0 0.00 0.10 0.10 90 1015.0
20260903221833 80 9 17.0 30.0 0.00 0.10 0.10 84 1014.1
20260903221332 80 32 1.0 2.0 0.00 0.10 0.10 84 1012.2
20260903220829 80 8 3.0 5.0 0.00 0.10 0.10 84 1012.1
20260903220319 80 19 3.0 3.0 0.00 0.10 0.10 83 1011.6
20260903215817 81 10 2.0 3.0 0.00 0.10 0.10 82 1011.5
20260903215314 81 21 1.0 1.0 0.00 0.10 0.10 82 1011.5
20260903214811 82 354 3.0 3.0 0.00 0.10 0.10 81 1011.6
20260903214308 82 354 2.0 3.0 0.00 0.10 0.10 81 1011.5
20260903213802 82 25 2.0 3.0 0.00 0.10 0.10 82 1011.9
20260903213258 83 343 2.0 2.0 0.00 0.10 0.10 81 1012.2
20260903212754 83 24 6.0 8.0 0.00 0.10 0.10 81 1012.4
20260903212250 83 30 2.0 2.0 0.00 0.10 0.10 81 1011.8
20260903211749 84 13 4.0 7.0 0.00 0.10 0.10 80 1011.6
20260903211246 84 27 3.0 3.0 0.00 0.10 0.10 80 1011.6
20260903210741 84 36 2.0 5.0 0.00 0.10 0.10 79 1011.3
20260903210236 84 37 1.0 1.0 0.00 0.10 0.10 80 1011.2
20260903205730 85 39 2.0 2.0 0.00 0.10 0.10 79 1011.0
20260903205230 85 51 3.0 6.0 0.00 0.10 0.10 79 1010.7
20260903204725 86 22 4.0 6.0 0.00 0.10 0.10 78 1010.5
20260903204221 86 54 2.0 2.0 0.00 0.10 0.10 79 1010.2
20260903203717 86 8 3.0 3.0 0.00 0.10 0.10 78 1010.5
20260903203212 86 31 3.0 3.0 0.00 0.10 0.10 78 1010.5
20260903202706 86 17 5.0 7.0 0.00 0.10 0.10 76 1010.5
20260903202202 88 45 3.0 6.0 0.00 0.10 0.10 73 1010.4
20260903201701 91 18 3.0 3.0 0.00 0.10 0.10 62 1010.2
20260903201156 92 135 1.0 2.0 0.00 0.10 0.10 64 1010.2
20260903200650 92 192 0.0 0.0 0.00 0.10 0.10 63 1010.3
20260903200146 91 205 1.0 1.0 0.00 0.10 0.10 61 1010.7
20260903195642 91 162 0.0 1.0 0.00 0.10 0.10 62 1010.4
20260903195137 92 214 2.0 3.0 0.00 0.10 0.10 61 1010.7
20260903194638 93 218 1.0 1.0 0.00 0.10 0.10 59 1011.0
20260903194138 93 323 4.0 5.0 0.00 0.10 0.10 60 1010.9
20260903193634 92 335 2.0 2.0 0.00 0.10 0.10 60 1010.9
20260903193129 92 247 3.0 3.0 0.00 0.10 0.10 58 1011.0
20260903192626 92 208 1.0 1.0 0.00 0.10 0.10 59 1011.1
20260903192125 94 251 2.0 2.0 0.00 0.10 0.10 59 1010.9
20260903191622 93 280 0.0 1.0 0.00 0.10 0.10 60 1011.1
20260903191117 92 227 0.0 0.0 0.00 0.10 0.10 60 1011.2
20260903190616 93 225 3.0 6.0 0.00 0.10 0.10 61 1011.2
20260903190116 94 201 1.0 1.0 0.00 0.10 0.10 60 1011.4
20260903185612 93 236 2.0 3.0 0.00 0.10 0.10 60 1011.8
20260903185107 93 216 0.0 0.0 0.00 0.10 0.10 59 1011.9
20260903184603 92 194 2.0 2.0 0.00 0.10 0.10 60 1011.9
20260903184058 93 211 2.0 3.0 0.00 0.10 0.10 59 1011.9
20260903183557 93 297 3.0 3.0 0.00 0.10 0.10 61 1012.1
20260903183052 92 288 1.0 2.0 0.00 0.10 0.10 62 1012.1
20260903182551 92 154 2.0 3.0 0.00 0.10 0.10 61 1012.1
20260903182048 92 273 1.0 1.0 0.00 0.10 0.10 61 1012.1
20260903181545 92 269 2.0 3.0 0.00 0.10 0.10 62 1012.3
20260903181040 92 270 1.0 2.0 0.00 0.10 0.10 62 1012.3
20260903180535 91 230 0.0 0.0 0.00 0.10 0.10 64 1012.1
20260903180035 91 203 4.0 5.0 0.00 0.10 0.10 63 1012.2
20260903175534 91 228 0.0 1.0 0.00 0.10 0.10 65 1012.3
20260903175033 91 240 1.0 1.0 0.00 0.10 0.10 64 1012.4
20260903174528 91 236 3.0 5.0 0.00 0.10 0.10 66 1012.5
20260903174024 90 216 1.0 1.0 0.00 0.10 0.10 68 1012.6
20260903173518 90 209 2.0 3.0 0.00 0.10 0.10 67 1012.8
20260903173015 89 260 0.0 1.0 0.00 0.10 0.10 70 1012.7
20260903172515 89 222 1.0 1.0 0.00 0.10 0.10 72 1012.8
20260903172011 90 251 0.0 0.0 0.00 0.10 0.10 69 1013.0
20260903171505 88 305 0.0 0.0 0.00 0.10 0.10 72 1013.1
20260903171001 89 288 0.0 0.0 0.00 0.10 0.10 71 1013.1
20260903170500 89 265 0.0 0.0 0.00 0.10 0.10 71 1013.1
20260903165955 88 200 2.0 2.0 0.00 0.10 0.10 71 1013.1
20260903165453 87 237 0.0 1.0 0.00 0.10 0.10 74 1013.1
20260903164948 87 245 3.0 3.0 0.00 0.10 0.10 74 1013.0
20260903164438 87 207 1.0 1.0 0.00 0.10 0.10 74 1013.3
20260903163937 87 210 3.0 3.0 0.00 0.10 0.10 73 1013.4
20260903163433 87 235 1.0 2.0 0.00 0.10 0.10 73 1013.3
20260903162929 86 241 0.0 0.0 0.00 0.10 0.10 75 1013.2
20260903162426 87 242 3.0 5.0 0.00 0.10 0.10 72 1013.6
20260903161921 88 241 2.0 2.0 0.00 0.10 0.10 74 1013.5
20260903161416 87 183 1.0 1.0 0.00 0.10 0.10 72 1013.2
20260903160912 87 237 0.0 2.0 0.00 0.10 0.10 73 1013.3
20260903160411 87 270 3.0 5.0 0.00 0.10 0.10 73 1013.2
20260903155909 87 184 1.0 1.0 0.00 0.10 0.10 74 1013.5
20260903155405 87 260 0.0 0.0 0.00 0.10 0.10 75 1013.3
20260903154901 86 236 1.0 1.0 0.00 0.10 0.10 74 1013.5
20260903154357 86 255 4.0 5.0 0.00 0.10 0.10 74 1013.4
20260903153857 86 280 3.0 3.0 0.00 0.10 0.10 76 1013.7
20260903153352 86 247 4.0 5.0 0.00 0.10 0.10 74 1013.4
20260903152849 86 233 1.0 1.0 0.00 0.10 0.10 75 1013.3
20260903152344 85 285 0.0 1.0 0.00 0.10 0.10 76 1013.5
20260903151839 86 243 1.0 1.0 0.00 0.10 0.10 75 1013.5
20260903151335 85 203 1.0 2.0 0.00 0.10 0.10 76 1013.4
20260903150835 85 223 1.0 1.0 0.00 0.10 0.10 77 1013.5
20260903150329 85 201 1.0 1.0 0.00 0.10 0.10 77 1013.3
20260903145824 84 235 3.0 5.0 0.00 0.10 0.10 77 1013.4
20260903145319 84 245 1.0 1.0 0.00 0.10 0.10 78 1013.4
20260903144819 83 233 2.0 2.0 0.00 0.10 0.10 80 1013.7
20260903144314 82 222 0.0 0.0 0.00 0.10 0.10 83 1013.3
20260903143809 82 197 0.0 1.0 0.00 0.10 0.10 84 1013.4
20260903143306 83 193 2.0 2.0 0.00 0.10 0.10 83 1013.6
20260903142801 82 205 2.0 2.0 0.00 0.10 0.10 83 1013.6
20260903142257 81 213 1.0 2.0 0.00 0.10 0.10 84 1013.7
20260903141753 80 208 3.0 3.0 0.00 0.10 0.10 84 1013.8
20260903141249 80 225 3.0 5.0 0.00 0.10 0.10 85 1013.6
20260903140749 80 226 3.0 5.0 0.00 0.10 0.10 86 1013.6
20260903140244 79 214 1.0 2.0 0.00 0.10 0.10 86 1013.7
20260903135740 79 191 2.0 2.0 0.00 0.10 0.10 86 1013.6
20260903135235 79 217 1.0 1.0 0.00 0.10 0.10 87 1013.6
20260903134733 78 230 1.0 1.0 0.00 0.10 0.10 88 1013.6
20260903134230 78 220 0.0 1.0 0.00 0.10 0.10 89 1013.7
20260903133727 77 170 3.0 3.0 0.00 0.10 0.10 89 1013.7
20260903133224 77 189 0.0 1.0 0.00 0.10 0.10 91 1013.8
20260903132724 77 174 2.0 3.0 0.00 0.10 0.10 90 1013.7
20260903132224 77 188 0.0 1.0 0.00 0.10 0.10 90 1013.7
20260903131718 77 173 0.0 0.0 0.00 0.10 0.10 90 1013.9
20260903131213 75 173 0.0 1.0 0.00 0.10 0.10 91 1013.7
20260903130708 75 173 0.0 0.0 0.00 0.10 0.10 93 1013.9
20260903130202 73 173 0.0 0.0 0.00 0.10 0.10 96 1013.9
20260903125701 73 194 3.0 3.0 0.00 0.10 0.10 98 1014.3
20260903125156 72 179 0.0 0.0 0.00 0.10 0.10 99 1014.2
20260903124655 71 209 1.0 1.0 0.00 0.10 0.10 99 1013.9
20260903124156 71 200 1.0 1.0 0.00 0.10 0.10 99 1014.0
20260903123655 71 191 5.0 6.0 0.00 0.10 0.10 99 1014.0
20260903123154 71 180 1.0 2.0 0.00 0.10 0.10 99 1013.8
20260903122654 70 179 3.0 3.0 0.00 0.10 0.10 99 1014.0
20260903122148 70 140 0.0 0.0 0.00 0.10 0.10 99 1013.9
20260903121647 69 143 0.0 0.0 0.00 0.10 0.10 99 1014.1
20260903121143 69 153 0.0 0.0 0.00 0.10 0.10 99 1014.1
20260903120642 69 116 1.0 1.0 0.00 0.10 0.10 99 1013.9
20260903120137 69 130 0.0 0.0 0.00 0.10 0.10 99 1014.1
20260903115635 69 109 0.0 0.0 0.00 0.10 0.10 99 1013.7
20260903115131 69 122 0.0 0.0 0.00 0.10 0.10 99 1013.8
20260903114626 69 120 0.0 0.0 0.00 0.10 0.10 99 1013.8
20260903114121 69 69 0.0 0.0 0.00 0.10 0.10 99 1014.0
20260903113616 69 118 0.0 0.0 0.00 0.10 0.10 99 1014.1
20260903113113 70 196 0.0 1.0 0.00 0.10 0.10 99 1013.9
20260903112609 70 130 0.0 0.0 0.05 0.10 0.10 99 1013.9
20260903112108 70 107 0.0 0.0 0.17 0.10 0.10 99 1014.0
20260903111607 70 231 0.0 0.0 0.12 0.09 0.09 99 1014.4
20260903111103 70 177 0.0 0.0 0.12 0.07 0.07 98 1014.2
20260903110559 71 130 0.0 0.0 0.24 0.07 0.07 97 1014.0
20260903110054 71 140 0.0 0.0 0.31 0.05 0.05 96 1013.8
20260903105549 73 122 0.0 1.0 0.24 0.04 0.04 93 1013.8
20260903105044 73 112 0.0 0.0 0.00 0.00 0.00 88 1013.9
20260903104543 74 81 0.0 1.0 0.00 0.00 0.00 88 1013.7
20260903104039 74 38 1.0 2.0 0.00 0.00 0.00 87 1013.9
20260903103535 75 62 0.0 1.0 0.00 0.00 0.00 87 1013.5
20260903103031 75 31 1.0 1.0 0.00 0.00 0.00 88 1013.7
20260903102526 75 28 2.0 2.0 0.00 0.00 0.00 89 1013.8
20260903102025 74 62 1.0 2.0 0.00 0.00 0.00 92 1013.5
20260903101520 73 31 3.0 5.0 0.00 0.00 0.00 93 1013.3
20260903101016 73 121 0.0 0.0 0.00 0.00 0.00 93 1013.0
20260903100511 73 121 0.0 0.0 0.00 0.00 0.00 93 1013.0
20260903100009 73 135 0.0 0.0 0.00 0.00 0.00 93 1013.2
20260903095502 72 135 0.0 0.0 0.00 0.00 0.00 93 1012.9
20260903094957 72 136 0.0 0.0 0.00 0.00 0.00 93 1013.1
20260903094456 72 135 0.0 0.0 0.00 0.00 0.00 93 1013.0
20260903093953 72 135 0.0 0.0 0.00 0.00 0.00 93 1013.0
20260903093448 72 135 0.0 0.0 0.00 0.00 0.00 94 1013.0
20260903092943 72 136 0.0 0.0 0.00 0.00 0.00 93 1013.0
20260903092443 72 152 0.0 0.0 0.00 0.00 0.00 93 1012.7
20260903091942 72 153 0.0 0.0 0.00 0.00 0.00 93 1012.8
20260903091440 72 154 0.0 0.0 0.00 0.00 0.00 92 1012.7
20260903090936 72 152 1.0 1.0 0.00 0.00 0.00 92 1013.1
20260903090431 72 166 0.0 0.0 0.00 0.00 0.00 92 1013.1
20260903085930 72 165 0.0 0.0 0.00 0.00 0.00 91 1012.9
20260903085428 72 165 0.0 0.0 0.00 0.00 0.00 91 1012.9
20260903084928 72 163 0.0 0.0 0.00 0.00 0.00 91 1012.7
20260903084427 72 162 0.0 0.0 0.00 0.00 0.00 91 1012.7
20260903083922 72 158 0.0 0.0 0.00 0.00 0.00 90 1012.7
20260903083418 72 156 0.0 0.0 0.00 0.00 0.00 90 1012.8
20260903082917 72 156 0.0 0.0 0.00 0.00 0.00 90 1012.5
20260903082412 71 185 0.0 0.0 0.00 0.00 0.00 90 1012.4
20260903081907 72 251 0.0 0.0 0.00 0.00 0.00 92 1012.7
20260903081402 71 251 0.0 0.0 0.00 0.00 0.00 91 1012.7
20260903080859 71 251 0.0 0.0 0.00 0.00 0.00 92 1012.9
20260903080355 71 251 0.0 0.0 0.00 0.00 0.00 93 1012.9
20260903075855 71 251 0.0 0.0 0.00 0.00 0.00 93 1012.8
20260903075351 72 251 0.0 0.0 0.00 0.00 0.00 92 1013.0
20260903074850 72 251 0.0 0.0 0.00 0.00 0.00 90 1013.2
20260903074345 73 251 0.0 0.0 0.00 0.00 0.00 90 1013.2
20260903073841 73 251 0.0 0.0 0.00 0.00 0.00 89 1013.1
20260903073335 73 252 0.0 0.0 0.00 0.00 0.00 87 1013.1
20260903072831 74 252 0.0 0.0 0.00 0.00 0.00 86 1013.0
20260903072327 74 252 0.0 0.0 0.00 0.00 0.00 84 1012.9
20260903071824 74 261 0.0 0.0 0.00 0.00 0.00 85 1012.8
20260903071320 74 260 0.0 0.0 0.00 0.00 0.00 83 1013.0
20260903070814 75 261 0.0 0.0 0.00 0.00 0.00 84 1013.1
20260903070310 75 270 0.0 0.0 0.00 0.00 0.00 84 1012.8
20260903065805 76 311 0.0 0.0 0.00 0.00 0.00 83 1013.1
20260903065306 76 25 0.0 0.0 0.00 0.00 0.00 82 1013.4
20260903064803 77 15 0.0 0.0 0.00 0.00 0.00 81 1013.3
20260903064259 77 25 2.0 3.0 0.00 0.00 0.00 79 1013.2
20260903063755 77 16 1.0 1.0 0.00 0.00 0.00 80 1013.4
20260903063249 77 1 0.0 0.0 0.00 0.00 0.00 80 1013.6
20260903062746 78 14 3.0 3.0 0.00 0.00 0.00 79 1013.6
20260903062244 78 4 1.0 1.0 0.00 0.00 0.00 81 1013.7
20260903061741 78 28 0.0 0.0 0.00 0.00 0.00 81 1013.6
20260903061240 78 5 5.0 7.0 0.00 0.00 0.00 81 1013.6
20260903060736 79 351 5.0 7.0 0.00 0.00 0.00 83 1013.9
20260903060235 79 15 3.0 6.0 0.00 0.00 0.00 84 1013.8
20260903055733 79 7 2.0 3.0 0.00 0.00 0.00 85 1013.9
20260903055232 79 351 8.0 9.0 0.00 0.00 0.00 85 1013.7
20260903054727 79 229 0.0 0.0 0.00 0.00 0.00 86 1013.0
20260903054222 79 229 0.0 0.0 0.00 0.00 0.00 85 1013.0
20260903053719 79 229 0.0 0.0 0.00 0.00 0.00 85 1013.0
20260903053213 79 236 0.0 0.0 0.00 0.00 0.00 84 1013.0
20260903052709 80 236 0.0 0.0 0.00 0.00 0.00 83 1012.7
20260903052204 80 244 0.0 0.0 0.00 0.00 0.00 83 1012.7
20260903051659 80 240 0.0 0.0 0.00 0.00 0.00 83 1012.7
20260903051154 80 255 0.0 0.0 0.00 0.00 0.00 83 1012.5
20260903050650 80 279 0.0 0.0 0.00 0.00 0.00 82 1012.4
20260903050148 80 201 0.0 1.0 0.00 0.00 0.00 82 1012.4
20260903045644 80 255 0.0 0.0 0.00 0.00 0.00 82 1012.3